Regional Weather Roundup
Issued by NWS

Home | Current Version | Previous Version | Graphics & Text | Print | Product List | Glossary On
Versions: 1 2 3 4 5 6 7 8 9 10 11 12 13 14 15 16 17 18 19 20 21 22 23 24 25 26 27 28 29 30 31 32 33 34 35 36 37 38 39 40 41 42 43 44 45 46 47 48 49 50
000
ASUS43 KDMX 302307
RWRIA

WEATHER ROUNDUP FOR IOWA
NATIONAL WEATHER SERVICE DES MOINES IA
600 PM CDT SAT AUG 30 2014

NOTE: "FAIR" INDICATES FEW OR NO CLOUDS BELOW 12,000 FEET WITH NO
SIGNIFICANT WEATHER AND/OR OBSTRUCTIONS TO VISIBILITY.

* - THESE STATIONS ARE NOT NWS STATIONS...THUS NOT UNDER NWS
QUALITY CONTROL.  THEY ALSO DO NOT REPORT WEATHER SUCH
AS PRECIPITATION OR FOG.

IAZ001>003-012>014-020>022-031>034-043>046-310000-
   NORTHWEST IOWA

CITY           SKY/WX    TMP DP  RH WIND       PRES   REMARKS
CARROLL *      SUNNY     75  63  64 VRB7      29.88S
CHEROKEE *     SUNNY     75  63  64 S5        29.87F
DENISON *      SUNNY     75  61  60 W5        29.87S
LE MARS *      SUNNY     73  63  68 S3        29.87F
ORANGE CITY *  SUNNY     73  61  64 CALM      29.88S
SHELDON *      PTSUNNY   73  64  73 SW3       29.86F
SIOUX CITY     SUNNY     76  61  59 CALM      29.87S
SPENCER        SUNNY     76  62  62 W7        29.87F
STORM LAKE *   SUNNY     73  73 100 W8        29.88F
$$

IAZ055>058-069>071-079>083-090>094-310000-
   SOUTHWEST IOWA

CITY           SKY/WX    TMP DP  RH WIND       PRES   REMARKS
ATLANTIC *     SUNNY     77  64  65 SW6       29.88S
AUDUBON *      SUNNY     79  70  73 CALM      29.90S HX  81
CLARINDA *     SUNNY     82  64  54 CALM      29.89F HX  84
COUNCIL BLFS * SUNNY     79  66  65 S3        29.87F HX  81
CRESTON *      SUNNY     79  68  69 W7        29.90S HX  81
HARLAN  *      SUNNY     77  66  69 W5        29.92S
LAMONI         SUNNY     82  67  60 W6        29.88F HX  84
RED OAK *      SUNNY     81  64  57 CALM      29.88F HX  82
SHENANDOAH *   SUNNY     82  68  61 CALM      29.88S HX  85
$$

IAZ047>049-059>061-072>074-084-310000-
   CENTRAL IOWA

CITY           SKY/WX    TMP DP  RH WIND       PRES   REMARKS
AMES           SUNNY     77  65  66 SW7       29.88R
ANKENY *       MOSUNNY   79  68  69 W9        29.87S HX  81
CHARITON *     PTSUNNY   81  66  61 CALM      29.88S HX  83
DES MOINES     MOSUNNY   82  68  62 NW7       29.87R HX  85
GRINNELL*      PTSUNNY   79  66  65 SW7       29.88S HX  81
KNOXVILLE *    SUNNY     81  66  61 W5        29.86F HX  83
MARSHALLTOWN   MOSUNNY   77  67  71 N3        29.87S
PELLA *        SUNNY     82  68  61 CALM      29.88S HX  85
PERRY *        PTSUNNY   77  66  69 W7        29.88S
$$

IAZ004>006-015-016-023>025-035-036-310000-
   NORTH CENTRAL IOWA

CITY           SKY/WX    TMP DP  RH WIND       PRES   REMARKS
ALGONA *       SUNNY     75  63  64 CALM      29.87F
CLARION *      MOSUNNY   77  64  65 W8        29.87S
ESTHERVILLE    MOSUNNY   76  61  59 CALM      29.87S
FORT DODGE *   MOSUNNY   75  64  69 CALM      29.87F
MASON CITY     MOSUNNY   77  64  64 W7        29.88S
FOREST CITY *  MOSUNNY   77  64  65 SW3       29.87S
IOWA FALLS *     N/A     77  63  61 SW7       29.89S
$$

IAZ007>011-017>019-026>030-037>042-050>054-066-310000-
   NORTHEAST IOWA

CITY           SKY/WX    TMP DP  RH WIND       PRES   REMARKS
CEDAR RAPIDS   MOSUNNY   78  69  73 W7        29.86F HX  80
CHARLES CITY * MOSUNNY   75  66  73 W6        29.87R
CLINTON *      SUNNY     79  66  65 W7        29.89R HX  81
DECORAH *      MOSUNNY   75  66  73 CALM      29.85R
DUBUQUE        MOSUNNY   76  66  71 W10       29.86S
MONTICELLO *   SUNNY     79  66  65 W12       29.86S HX  81
OELWEIN *      MOSUNNY   75  68  78 SW7       29.87S
WATERLOO       MOSUNNY   79  65  62 W9        29.85S HX  81
$$

IAZ064-065-067-068-078-310000-
   EAST CENTRAL IOWA

CITY           SKY/WX    TMP DP  RH WIND       PRES   REMARKS
DAVENPORT      MOSUNNY   79  67  66 W6        29.87S HX  81
IOWA CITY      SUNNY     78  67  68 W8        29.88S HX  80
MT. PLEASANT * MOSUNNY   82  66  57 W5        29.88S HX  85
MUSCATINE *    SUNNY     81  68  65 W9        29.87S HX  83
QUAD CITIES    SUNNY     81  67  62 W7        29.86S HX  83
$$

IAZ062-063-075>077-085>089-095>099-310000-
   SOUTHEAST IOWA

CITY           SKY/WX    TMP DP  RH WIND       PRES   REMARKS
BURLINGTON     LGT RAIN  82  69  64 W6        29.87S HX  85
FAIRFIELD *    MOSUNNY   79  68  69 W6        29.89S HX  81
FORT MADISON * SUNNY     82  70  65 W5        29.88S HX  86
KEOKUK *       MOSUNNY   82  70  65 VRB7      29.87R HX  86
OSKALOOSA *      N/A     79  70  73 S5        29.88F HX  81
CENTERVILLE *  MOSUNNY   81  68  65 CALM      29.90S HX  83
OTTUMWA        SUNNY     79  67  66 SW3       29.88S HX  81
WASHINGTON *   SUNNY     79  70  73 NW5       29.88S HX  81
$$

ABBREVIATIONS USED IN REMARKS
   TC - TEMPERATURES IN CELSIUS
  WCI - WIND CHILL INDEX
   HX - HEAT INDEX
  VSB - VISIBILITY
$$




USA.gov is the U.S. government's official web portal to all federal, state and local government web resources and services.